Location: Presov
(49.0000°N, 21.2500°E)
Time: 21:25:54
(UTC+02:00)

ISS - Pass Details

Date: 23 May 2025
Orbit: 415 x 416 km, 51.6° (Epoch: 16 June)

Event Time Altitude Azimuth Distance (km) Brightness Sun altitude
Rises 22:17:15 0° 286° (WNW) 2,360 0.8 -14.1°
Reaches altitude 10° 22:19:42 10° 269° (W) 1,493 -0.6 -14.3°
Maximum altitude 22:22:14 20° 220° (SW) 1,021 -2.0 -14.5°
Enters shadow 22:23:01 19° 200° (SSW) 1,072 -2.1 -14.6°
